Delta, CO

7:10 AM MDT on August 23, 2017 (GMT -0600)
Delta

Weather History for KAJZ - June, 2013

Change the Weather History Date:

Wednesday, June 12, 2013

  Actual Average (KMTJ) Record (KMTJ)
Temperature  
Mean Temperature 78 °F -  
Max Temperature 97 °F 80 °F 94 °F (2013)
Min Temperature 58 °F 47 °F 39 °F (2008)
Cooling Degree Days 12    
Growing Degree Days 28 (Base 50)    
Moisture  
Dew Point 23 °F    
Average Humidity 16    
Maximum Humidity 32    
Minimum Humidity 5    
Precipitation  
Precipitation 0.00 in - - ()
Sea Level Pressure  
Sea Level Pressure 30.11 in    
Wind  
Wind Speed 8 mph (ESE)    
Max Wind Speed 23 mph    
Max Gust Speed 30 mph    
Visibility 10 miles    
Events      
Averages and records for this station are not official NWS values.
T = Trace of Precipitation, MM = Missing Value Source: NWS Daily Summary

Daily Weather History Graph

Daily Weather History Graph

Search for Another Location

Airport or City:

Trip Planner

Search our weather history database for the weather conditions in past years. The results will help you decide how hot, cold, wet, or windy it might be!

Date:

Astronomy

Jun. 12, 2013 Rise Set
Actual Time 5:46 AM MDT 8:37 PM MDT
Civil Twilight 5:14 AM MDT 9:09 PM MDT
Nautical Twilight 4:34 AM MDT 9:49 PM MDT
Astronomical Twilight 3:48 AM MDT 10:35 PM MDT
Moon 9:27 AM MDT (6/12) 11:17 PM MDT (6/12)
Length of Visible Light 15h 54m
Length of Day
14h 51m
Waxing Crescent, 14% of the Moon is Illuminated
Jun 12
Waxing Crescent
Jun 16
First Quarter
Jun 23
Full
Jun 29
Last Quarter
Jul 8
New

Hourly Weather History & Observations

Time (MDT) Temp. Dew Point Humidity Pressure Visibility Wind Dir Wind Speed Gust Speed Precip Events Conditions
12:15 AM 65.1 °F 25.3 °F 22% 30.11 in 10.0 mi NNE 5.8 mph - N/A   Clear
12:35 AM 65.5 °F 22.1 °F 19% 30.11 in 10.0 mi ENE 8.1 mph - N/A   Clear
12:55 AM 65.8 °F 23.0 °F 20% 30.11 in 10.0 mi ENE 8.1 mph - N/A   Clear
1:15 AM 65.5 °F 23.2 °F 20% 30.11 in 10.0 mi ENE 8.1 mph - N/A   Clear
1:35 AM 65.5 °F 24.6 °F 21% 30.12 in 10.0 mi East 6.9 mph - N/A   Clear
1:55 AM 64.6 °F 26.6 °F 24% 30.12 in 10.0 mi East 6.9 mph - N/A   Clear
2:15 AM 64.2 °F 25.5 °F 23% 30.11 in 10.0 mi NE 5.8 mph - N/A   Clear
2:35 AM 63.0 °F 24.8 °F 23% 30.12 in 10.0 mi East 8.1 mph - N/A   Clear
2:55 AM 61.5 °F 26.1 °F 26% 30.12 in 10.0 mi ENE 10.4 mph - N/A   Clear
3:15 AM 62.8 °F 25.3 °F 24% 30.12 in 10.0 mi NE 9.2 mph - N/A   Clear
3:35 AM 63.0 °F 27.7 °F 26% 30.12 in 10.0 mi ENE 13.8 mph - N/A   Clear
3:55 AM 59.9 °F 26.6 °F 28% 30.12 in 10.0 mi ENE 8.1 mph - N/A   Clear
4:15 AM 60.1 °F 27.5 °F 29% 30.12 in 10.0 mi ENE 9.2 mph - N/A   Clear
4:35 AM 59.2 °F 27.3 °F 30% 30.12 in 10.0 mi NE 8.1 mph - N/A   Clear
4:55 AM 58.6 °F 27.3 °F 30% 30.12 in 10.0 mi NE 6.9 mph - N/A   Clear
5:15 AM 58.6 °F 27.3 °F 30% 30.13 in 10.0 mi ENE 6.9 mph - N/A   Clear
5:35 AM 60.1 °F 28.0 °F 30% 30.13 in 10.0 mi ENE 8.1 mph - N/A   Clear
5:55 AM 59.2 °F 28.0 °F 31% 30.14 in 10.0 mi East 6.9 mph - N/A   Clear
6:15 AM 58.1 °F 28.4 °F 32% 30.14 in 10.0 mi East 5.8 mph - N/A   Clear
6:35 AM 59.4 °F 27.5 °F 30% 30.15 in 10.0 mi East 6.9 mph - N/A   Clear
6:55 AM 62.4 °F 28.4 °F 28% 30.16 in 10.0 mi NNE 6.9 mph - N/A   Clear
7:15 AM 62.2 °F 28.4 °F 28% 30.17 in 10.0 mi NE 5.8 mph - N/A   Clear
7:35 AM 63.0 °F 30.4 °F 29% 30.17 in 10.0 mi NE 4.6 mph - N/A   Clear
7:55 AM 66.4 °F 29.3 °F 25% 30.18 in 10.0 mi East 9.2 mph - N/A   Clear
8:15 AM 67.6 °F 29.7 °F 24% 30.17 in 10.0 mi East 3.5 mph - N/A   Clear
8:35 AM 68.9 °F 28.8 °F 22% 30.18 in 10.0 mi East 5.8 mph - N/A   Clear
8:55 AM 72.0 °F 27.5 °F 19% 30.17 in 10.0 mi East 4.6 mph - N/A   Clear
9:15 AM 75.9 °F 25.9 °F 16% 30.16 in 10.0 mi ENE 5.8 mph - N/A   Clear
9:35 AM 77.0 °F 28.0 °F 17% 30.16 in 10.0 mi ENE 5.8 mph - N/A   Clear
9:55 AM 79.9 °F 29.3 °F 16% 30.16 in 10.0 mi East 5.8 mph - N/A   Clear
10:15 AM 81.9 °F 26.4 °F 13% 30.15 in 10.0 mi East 4.6 mph - N/A   Clear
10:35 AM 83.5 °F 26.1 °F 12% 30.15 in 10.0 mi Calm Calm - N/A   Clear
10:55 AM 86.0 °F 24.4 °F 11% 30.15 in 10.0 mi Calm Calm - N/A   Clear
11:15 AM 86.9 °F 21.9 °F 9% 30.15 in 10.0 mi East 3.5 mph - N/A   Clear
11:35 AM 89.6 °F 23.2 °F 9% 30.14 in 10.0 mi South 5.8 mph - N/A   Clear
11:55 AM 90.3 °F 23.7 °F 9% 30.14 in 10.0 mi Calm Calm - N/A   Clear
12:15 PM 91.8 °F 23.9 °F 9% 30.14 in 10.0 mi SW 4.6 mph - N/A   Clear
12:35 PM 92.1 °F 24.6 °F 9% 30.12 in 10.0 mi SSW 5.8 mph - N/A   Clear
12:55 PM 92.7 °F 24.3 °F 9% 30.12 in 10.0 mi SSW 6.9 mph - N/A   Clear
1:15 PM 96.3 °F 19.9 °F 6% 30.10 in 10.0 mi SW 16.1 mph 24.2 mph N/A   Clear
1:35 PM 97.0 °F 20.3 °F 6% 30.09 in 10.0 mi SW 11.5 mph 25.3 mph N/A   Clear
1:55 PM 96.6 °F 19.2 °F 6% 30.08 in 10.0 mi SW 13.8 mph 23.0 mph N/A   Clear
2:15 PM 97.9 °F 18.7 °F 6% 30.08 in 10.0 mi SW 20.7 mph 26.5 mph N/A   Clear
2:35 PM 97.3 °F 18.9 °F 6% 30.08 in 10.0 mi SSW 15.0 mph 19.6 mph N/A   Clear
2:55 PM 97.5 °F 17.6 °F 6% 30.07 in 10.0 mi SW 13.8 mph 27.6 mph N/A   Clear
3:15 PM 96.3 °F 16.3 °F 5% 30.07 in 10.0 mi SSW 17.3 mph 24.2 mph N/A   Clear
3:35 PM 96.3 °F 17.2 °F 6% 30.06 in 10.0 mi SW 23.0 mph 29.9 mph N/A   Clear
3:55 PM 96.3 °F 15.6 °F 5% 30.07 in 10.0 mi SSW 13.8 mph 28.8 mph N/A   Clear
4:15 PM 94.1 °F 17.2 °F 6% 30.06 in 10.0 mi SW 16.1 mph - N/A   Clear
4:35 PM 94.3 °F 18.5 °F 6% 30.06 in 10.0 mi SSW 13.8 mph 17.3 mph N/A   Clear
4:55 PM 93.9 °F 16.2 °F 6% 30.06 in 10.0 mi SSW 13.8 mph - N/A   Clear
5:15 PM 94.3 °F 17.6 °F 6% 30.06 in 10.0 mi SW 17.3 mph 21.9 mph N/A   Clear
5:35 PM 93.2 °F 16.7 °F 6% 30.05 in 10.0 mi SW 13.8 mph - N/A   Clear
5:55 PM 92.7 °F 17.8 °F 6% 30.05 in 10.0 mi WSW 11.5 mph 18.4 mph N/A   Clear
6:15 PM 91.9 °F 17.2 °F 6% 30.05 in 10.0 mi SW 15.0 mph 19.6 mph N/A   Clear
6:35 PM 91.4 °F 16.0 °F 6% 30.05 in 10.0 mi SW 11.5 mph - N/A   Clear
6:55 PM 90.1 °F 17.8 °F 7% 30.06 in 10.0 mi SSW 10.4 mph - N/A   Clear
7:15 PM 89.1 °F 19.8 °F 8% 30.06 in 10.0 mi SSW 3.5 mph - N/A   Clear
7:35 PM 88.2 °F 19.8 °F 8% 30.06 in 10.0 mi Calm Calm - N/A   Clear
7:55 PM 87.4 °F 20.7 °F 9% 30.06 in 10.0 mi Calm Calm - N/A   Clear
8:15 PM 86.7 °F 19.2 °F 8% 30.06 in 10.0 mi Calm Calm - N/A   Clear
8:35 PM 84.4 °F 19.2 °F 9% 30.07 in 10.0 mi South 4.6 mph - N/A   Clear
8:55 PM 81.7 °F 22.1 °F 11% 30.08 in 10.0 mi SW 4.6 mph - N/A   Clear
9:15 PM 80.4 °F 20.5 °F 11% 30.08 in 10.0 mi SW 4.6 mph - N/A   Clear
9:35 PM 79.3 °F 18.3 °F 10% 30.08 in 10.0 mi SW 3.5 mph - N/A   Clear
9:55 PM 75.2 °F 24.1 °F 15% 30.09 in 10.0 mi NE 4.6 mph - N/A   Clear
10:15 PM 70.9 °F 27.7 °F 20% 30.09 in 10.0 mi NNW 5.8 mph - N/A   Clear
10:35 PM 71.6 °F 25.0 °F 17% 30.09 in 10.0 mi North 4.6 mph - N/A   Clear
10:55 PM 70.5 °F 21.7 °F 16% 30.09 in 10.0 mi NNE 5.8 mph - N/A   Clear
11:15 PM 70.0 °F 18.3 °F 14% 30.09 in 10.0 mi NNE 8.1 mph - N/A   Clear
11:35 PM 69.4 °F 21.2 °F 16% 30.09 in 10.0 mi NE 8.1 mph - N/A   Clear
11:55 PM 66.7 °F 26.2 °F 22% 30.09 in 10.0 mi NE 8.1 mph - N/A   Clear